FENGYUN 1C DEB, 37693

Orbit data source: Space-Track

FENGYUN 1C DEB, 37693 is space debris in SSO originally from a launch on Mon, 10 May 1999 UTC launched from the Taiyaun Space Center, China (TSC). Fengyun 1C debris stems from the Chinese weather satellite Fengyun-1C, which was intentionally destroyed by a Chinese anti-satellite missile in 2007. This event dramatically increased the amount of space debris, with thousands of trackable fragments posing hazards to satellites and human spaceflight. The Fengyun 1C debris cloud has become a focal point in discussions about space sustainability and the need for international regulations to prevent the creation of new debris.

Loading next visibility...
Identifier
37693, 1999-025ELJ
Orbit
SSO
Country
Flag of CNCN / PRC
Related business
Manufacturer
Unknown
Mission
Spacecraft
Bus & Motor
Unknown
Mass
Unknown
Launch date (UTC)
1999-05-10 (27 years ago)
Launch vehicle
Unknown
Launch site
Taiyaun Space Center, China (TSC)
Object type
Payload
Rocket body
Debris
Shape & HBR
Unknown shape, 0.1 m
Radar Cross Section
Small (<0.1 m²)

Expand to show TLE details & history
Last TLE update: 3 days ago

TLE from 3 days ago
0 FENGYUN 1C DEB
1 37693U 99025ELJ 26252.21737476  .00000695  00000-0  41539-3 0  9992
2 37693  98.7055 247.5817 0072574  31.8225  27.8275 14.08989902659577
Epoch: 2026-09-09T05:13Z
TLE epoch observation values (Epoch: 2026-09-09T05:13:01.179Z)
Latitude
59.01314°
Longitude
166.36266°
Altitude
826.388 km
Speed
7.469 km/s
True Right ascension
15h 31m 33s
True Declination
58° 51' 45"
Sunlit
Object was in daylight at epoch
Visualization orbit readout
Latitude
Unknown
Longitude
Unknown
Altitude
Unknown
Speed
Unknown
Apparent Right ascension
Unknown
Apparent Declination
Unknown
Sunlit
N/A
Visualization observer readout
Local Sidereal Time
02:09:50
Azimuth
Unknown
Elevation
Unknown
Doppler factor
Unknown
Orbital elements
Apogee altitude
912.533 km
Perigee altitude
807.473 km
Semi-major axis
7,238.14 km
Eccentricity
0.00726
Inclination
98.7055°
RAAN
247.5817°
Arg. of periapsis
31.8225°
True anomaly
28.21885°
Mean anomaly
27.8275°
Eccentric anomaly
28.02286°
Mean motion
3.52454 °/min
Orbital period
102.14 mins
BSTAR
0.00041539
Loading maneuver chart data...
Computing Atmospheric mass density...

Documentation

Showing up to 5 results
|